sat.trackr.live / text

‹ back to catalog

ONEWEB-0649

NORAD 55812 · 2023-029S

PAYLOAD ACTIVE UNKNOWN

§ Identity

Operator
Country
UK
Launch date
2023-03-09
Launch site
AFETR
Launch vehicle
Mass (kg)
RCS (m²)

Purposes: comms

External: N2YO · Heavens-Above · Gunter

§ Orbital elements

Epoch: 2026-09-19T00:28:02.888832Z

Period
109.11 min
Inclination
87.9110°
Eccentricity
0.0001941
Mean motion
13.19723385 rev/d
Perigee alt
1,184.3 km
Apogee alt
1,187.2 km
Semi-major
7,563.9 km
B*
1.3830e-4
RAAN
286.2764°
Arg perigee
84.0252°
Mean anomaly
276.1102°
Rev number
17,130

§ Raw data

ONEWEB-06491 55812U 23029S   26262.01947788  .00000068  00000+0  13830-3 0  99902 55812  87.9110 286.2764 0001941  84.0252 276.1102 13.19723385171303

JSON: /api/v1/satellites/55812 · /tle

For live sub-satellite position, see the globe view (requires WebGL).

§ Visibility from observer

Set your observer location to see the next 7 days of passes ≥ 10°. The values pass through the URL so the page stays shareable.

No JS? Fill the form by hand. The geolocation button needs JavaScript.